SHT2TR EGLL-EGCC

Flight info

Callsign SHT2TR
Flight time 0h 29m
Altitude 18000
Route ULTIB1J ULTIB T420 ELVOS ELVOS1M
Aircraft A320/M-SDE3FGIJ1KRWXY/SB1

Departure

Time 2026-05-08 00:05
Airport London Heathrow Airport (EGLL)

Arrival

Time 2026-05-08 00:34
Airport Manchester Airport (EGCC)
Time Latitude Longitude Altitude Speed Heading
2026-05-07 23:21 51.46980 -0.48032 86 ft 0 kts 270°
2026-05-07 23:52 51.46980 -0.48025 89 ft 3 kts 270°
2026-05-07 23:52 51.46980 -0.47989 88 ft 3 kts 270°
2026-05-07 23:52 51.46980 -0.47953 88 ft 3 kts 270°
2026-05-07 23:52 51.46980 -0.47920 86 ft 1 kts 270°
2026-05-07 23:53 51.46983 -0.47889 88 ft 3 kts 234°
2026-05-07 23:53 51.46998 -0.47870 86 ft 3 kts 188°
2026-05-07 23:53 51.47019 -0.47869 86 ft 3 kts 180°
2026-05-07 23:53 51.47024 -0.47869 86 ft 0 kts 180°
2026-05-07 23:55 51.47018 -0.47869 90 ft 3 kts 180°
2026-05-07 23:55 51.46983 -0.47869 86 ft 7 kts 180°
2026-05-07 23:56 51.46928 -0.47868 87 ft 9 kts 180°
2026-05-07 23:56 51.46855 -0.47868 86 ft 12 kts 179°
2026-05-07 23:56 51.46807 -0.47868 87 ft 7 kts 180°
2026-05-07 23:56 51.46754 -0.47883 89 ft 6 kts 219°
2026-05-07 23:57 51.46744 -0.47956 89 ft 7 kts 269°
2026-05-07 23:57 51.46744 -0.48008 88 ft 3 kts 269°
2026-05-07 23:57 51.46743 -0.48053 86 ft 3 kts 270°
2026-05-07 23:57 51.46743 -0.48075 86 ft 3 kts 269°
2026-05-07 23:58 51.46743 -0.48087 88 ft 0 kts 269°
2026-05-08 00:02 51.46743 -0.48108 86 ft 4 kts 269°
2026-05-08 00:02 51.46743 -0.48182 86 ft 9 kts 269°
2026-05-08 00:03 51.46742 -0.48285 86 ft 8 kts 270°
2026-05-08 00:03 51.46742 -0.48376 86 ft 8 kts 270°
2026-05-08 00:03 51.46724 -0.48452 87 ft 10 kts 219°
2026-05-08 00:03 51.46600 -0.48464 86 ft 24 kts 178°
2026-05-08 00:04 51.46495 -0.48450 88 ft 11 kts 150°
2026-05-08 00:04 51.46480 -0.48284 88 ft 30 kts 89°
2026-05-08 00:04 51.46482 -0.47508 88 ft 103 kts 90°
2026-05-08 00:04 51.46487 -0.46069 90 ft 156 kts 89°
2026-05-08 00:05 51.46496 -0.44293 664 ft 159 kts 89°
2026-05-08 00:05 51.46527 -0.42519 1350 ft 161 kts 85°
2026-05-08 00:05 51.47015 -0.40804 1729 ft 185 kts 48°
2026-05-08 00:05 51.48213 -0.39723 2328 ft 217 kts
2026-05-08 00:06 51.49798 -0.39993 3146 ft 244 kts 347°
2026-05-08 00:06 51.51529 -0.40614 3936 ft 264 kts 347°
2026-05-08 00:06 51.53342 -0.41248 4850 ft 270 kts 347°
2026-05-08 00:06 51.55195 -0.41887 5834 ft 275 kts 348°
2026-05-08 00:07 51.57078 -0.42541 6817 ft 278 kts 347°
2026-05-08 00:07 51.58981 -0.43195 7765 ft 282 kts 347°
2026-05-08 00:07 51.60868 -0.44150 8684 ft 286 kts 338°
2026-05-08 00:07 51.62729 -0.45342 9593 ft 290 kts 338°
2026-05-08 00:08 51.64617 -0.46554 10427 ft 297 kts 338°
2026-05-08 00:08 51.66612 -0.47830 10747 ft 321 kts 338°
2026-05-08 00:08 51.68759 -0.49193 11144 ft 341 kts 338°
2026-05-08 00:08 51.71046 -0.50655 11398 ft 365 kts 337°
2026-05-08 00:09 51.73460 -0.52203 11903 ft 378 kts 338°
2026-05-08 00:09 51.75964 -0.53796 12512 ft 389 kts 338°
2026-05-08 00:09 51.78371 -0.55334 13075 ft 398 kts 338°
2026-05-08 00:09 51.80871 -0.56928 13811 ft 402 kts 338°
2026-05-08 00:10 51.83487 -0.58601 14612 ft 407 kts 338°
2026-05-08 00:10 51.86133 -0.60296 15367 ft 411 kts 337°
2026-05-08 00:10 51.88807 -0.62011 16083 ft 415 kts 337°
2026-05-08 00:10 51.91506 -0.63739 16780 ft 420 kts 337°
2026-05-08 00:11 51.94235 -0.65489 17431 ft 424 kts 337°
2026-05-08 00:11 51.96992 -0.67261 17941 ft 428 kts 337°
2026-05-08 00:11 51.99768 -0.69047 18075 ft 429 kts 337°
2026-05-08 00:11 52.02543 -0.70836 18085 ft 429 kts 337°
2026-05-08 00:12 52.05310 -0.72631 18079 ft 428 kts 337°
2026-05-08 00:12 52.08084 -0.74418 18083 ft 428 kts 337°
2026-05-08 00:12 52.10853 -0.76204 18081 ft 428 kts 337°
2026-05-08 00:12 52.13617 -0.77996 18083 ft 428 kts 337°
2026-05-08 00:13 52.16385 -0.79798 18083 ft 428 kts 337°
2026-05-08 00:13 52.19149 -0.81595 18082 ft 428 kts 337°
2026-05-08 00:13 52.21946 -0.83424 18087 ft 440 kts 337°
2026-05-08 00:13 52.24777 -0.85414 18077 ft 445 kts 331°
2026-05-08 00:14 52.27459 -0.87939 18087 ft 446 kts 328°
2026-05-08 00:14 52.30109 -0.90570 18080 ft 446 kts 327°
2026-05-08 00:14 52.32758 -0.93199 18084 ft 446 kts 327°
2026-05-08 00:14 52.35408 -0.95841 18081 ft 446 kts 327°
2026-05-08 00:15 52.38056 -0.98490 18084 ft 446 kts 327°
2026-05-08 00:15 52.40692 -1.01123 18076 ft 436 kts 327°
2026-05-08 00:15 52.43129 -1.03806 18078 ft 410 kts 318°
2026-05-08 00:15 52.45086 -1.07042 18085 ft 395 kts 311°
2026-05-08 00:16 52.46926 -1.10364 18080 ft 392 kts 311°
2026-05-08 00:16 52.48747 -1.13651 18078 ft 385 kts 310°
2026-05-08 00:16 52.50509 -1.16828 17991 ft 369 kts 311°
2026-05-08 00:16 52.52208 -1.19870 17878 ft 355 kts 311°
2026-05-08 00:17 52.53846 -1.22808 17750 ft 342 kts 310°
2026-05-08 00:17 52.55424 -1.25641 17623 ft 330 kts 310°
2026-05-08 00:17 52.56952 -1.28393 17409 ft 323 kts 310°
2026-05-08 00:17 52.58459 -1.31112 17069 ft 320 kts 310°
2026-05-08 00:18 52.59952 -1.33803 16717 ft 318 kts 310°
2026-05-08 00:18 52.61431 -1.36493 16371 ft 316 kts 310°
2026-05-08 00:18 52.62907 -1.39168 16008 ft 314 kts 310°
2026-05-08 00:18 52.64374 -1.41821 15654 ft 313 kts 310°
2026-05-08 00:19 52.65832 -1.44460 15305 ft 311 kts 310°
2026-05-08 00:19 52.67280 -1.47089 14954 ft 309 kts 310°
2026-05-08 00:19 52.68720 -1.49700 14600 ft 307 kts 310°
2026-05-08 00:19 52.70152 -1.52298 14246 ft 305 kts 310°
2026-05-08 00:20 52.71575 -1.54892 13896 ft 304 kts 310°
2026-05-08 00:20 52.72988 -1.57469 13547 ft 302 kts 310°
2026-05-08 00:20 52.74394 -1.60033 13199 ft 300 kts 310°
2026-05-08 00:20 52.75808 -1.62622 12846 ft 299 kts 310°
2026-05-08 00:21 52.77196 -1.65168 12503 ft 297 kts 310°
2026-05-08 00:21 52.78576 -1.67700 12167 ft 296 kts 310°
2026-05-08 00:21 52.79948 -1.70220 11817 ft 294 kts 310°
2026-05-08 00:21 52.81316 -1.72728 11480 ft 293 kts 310°
2026-05-08 00:22 52.82676 -1.75223 11129 ft 292 kts 310°
2026-05-08 00:22 52.84030 -1.77712 10770 ft 290 kts 310°
2026-05-08 00:22 52.85364 -1.80158 10425 ft 289 kts 310°
2026-05-08 00:22 52.86707 -1.82631 10083 ft 288 kts 310°
2026-05-08 00:23 52.88063 -1.85125 9714 ft 287 kts 310°
2026-05-08 00:23 52.89377 -1.87551 9373 ft 286 kts 310°
2026-05-08 00:23 52.90704 -1.90006 9030 ft 285 kts 310°
2026-05-08 00:23 52.92019 -1.92452 8680 ft 284 kts 310°
2026-05-08 00:24 52.93335 -1.94886 8344 ft 283 kts 310°
2026-05-08 00:24 52.94649 -1.97306 8009 ft 282 kts 310°
2026-05-08 00:24 52.95952 -1.99720 7682 ft 280 kts 310°
2026-05-08 00:24 52.97249 -2.02126 7373 ft 279 kts 310°
2026-05-08 00:25 52.98537 -2.04517 7052 ft 277 kts 310°
2026-05-08 00:25 52.99821 -2.06900 6719 ft 276 kts 310°
2026-05-08 00:25 53.01111 -2.09299 6397 ft 274 kts 310°
2026-05-08 00:25 53.02361 -2.11632 6075 ft 273 kts 310°
2026-05-08 00:26 53.03617 -2.13978 5741 ft 272 kts 310°
2026-05-08 00:26 53.04870 -2.16328 5418 ft 271 kts 310°
2026-05-08 00:26 53.06114 -2.18661 5112 ft 269 kts 310°
2026-05-08 00:26 53.07356 -2.20990 4784 ft 268 kts 310°
2026-05-08 00:27 53.08592 -2.23305 4461 ft 266 kts 310°
2026-05-08 00:27 53.09793 -2.25549 4226 ft 251 kts 310°
2026-05-08 00:27 53.10917 -2.27654 4051 ft 238 kts 310°
2026-05-08 00:27 53.12005 -2.29700 3812 ft 234 kts 310°
2026-05-08 00:28 53.13085 -2.31720 3505 ft 233 kts 310°
2026-05-08 00:28 53.14157 -2.33738 3206 ft 232 kts 310°
2026-05-08 00:28 53.15221 -2.35740 3029 ft 231 kts 310°
2026-05-08 00:28 53.16285 -2.37749 3010 ft 231 kts 309°
2026-05-08 00:29 53.17334 -2.39731 3003 ft 225 kts 310°
2026-05-08 00:29 53.18369 -2.41675 3003 ft 223 kts 310°
2026-05-08 00:29 53.19382 -2.43585 3000 ft 216 kts 310°
2026-05-08 00:29 53.20446 -2.45328 3001 ft 215 kts 323°
2026-05-08 00:30 53.21773 -2.46453 3004 ft 215 kts 342°
2026-05-08 00:30 53.23250 -2.46834 3005 ft 214 kts
2026-05-08 00:30 53.24690 -2.46485 2998 ft 204 kts 17°
2026-05-08 00:30 53.25970 -2.45581 2792 ft 197 kts 31°
2026-05-08 00:31 53.27067 -2.44268 2560 ft 192 kts 43°
2026-05-08 00:31 53.27987 -2.42700 2320 ft 187 kts 51°
2026-05-08 00:31 53.28801 -2.41037 2080 ft 183 kts 52°
2026-05-08 00:31 53.29594 -2.39412 1837 ft 177 kts 51°
2026-05-08 00:32 53.30347 -2.37867 1608 ft 166 kts 51°
2026-05-08 00:32 53.30820 -2.36894 1451 ft 159 kts 51°
2026-05-08 00:32 53.31712 -2.35062 1191 ft 146 kts 51°
2026-05-08 00:32 53.32345 -2.33756 1008 ft 143 kts 51°
2026-05-08 00:33 53.32972 -2.32469 812 ft 142 kts 50°
2026-05-08 00:33 53.33589 -2.31191 627 ft 141 kts 51°
2026-05-08 00:33 53.34203 -2.29911 426 ft 141 kts 50°
2026-05-08 00:33 53.34824 -2.28647 263 ft 140 kts 51°
2026-05-08 00:34 53.35377 -2.27490 243 ft 102 kts 51°
2026-05-08 00:34 53.35696 -2.26827 266 ft 41 kts 51°
2026-05-08 00:34 53.35804 -2.26675 270 ft 15 kts
2026-05-08 00:34 53.35902 -2.26715 259 ft 12 kts 324°
2026-05-08 00:35 53.35885 -2.26871 256 ft 18 kts 236°
2026-05-08 00:35 53.35832 -2.26994 255 ft 21 kts 238°
2026-05-08 00:35 53.35710 -2.27268 255 ft 21 kts 231°
2026-05-08 00:35 53.35652 -2.27389 250 ft 21 kts 231°
2026-05-08 00:36 53.35562 -2.27574 243 ft 22 kts 231°
2026-05-08 00:36 53.35469 -2.27771 239 ft 15 kts 239°
2026-05-08 00:36 53.35482 -2.27907 240 ft 11 kts 329°
2026-05-08 00:36 53.35583 -2.27903 238 ft 17 kts
2026-05-08 00:37 53.35703 -2.27881 245 ft 17 kts
2026-05-08 00:37 53.35824 -2.27861 251 ft 17 kts
2026-05-08 00:37 53.35920 -2.27848 255 ft 14 kts
2026-05-08 00:38 53.36120 -2.28093 255 ft 22 kts 317°
2026-05-08 00:38 53.36220 -2.28261 255 ft 16 kts 315°
2026-05-08 00:38 53.36286 -2.28372 255 ft 11 kts 315°
2026-05-08 00:38 53.36334 -2.28451 255 ft 8 kts 319°
2026-05-08 00:39 53.36397 -2.28484 255 ft 11 kts 351°
2026-05-08 00:39 53.36465 -2.28564 255 ft 13 kts 314°
2026-05-08 00:39 53.36514 -2.28647 255 ft 8 kts 315°
2026-05-08 00:39 53.36559 -2.28727 255 ft 11 kts 311°
2026-05-08 00:40 53.36600 -2.28836 255 ft 9 kts 304°
2026-05-08 00:40 53.36646 -2.28895 255 ft 9 kts 345°
2026-05-08 00:40 53.36703 -2.28968 255 ft 10 kts 315°
2026-05-08 00:40 53.36756 -2.29040 255 ft 8 kts 345°
2026-05-08 00:41 53.36812 -2.29016 255 ft 7 kts 24°
2026-05-08 00:41 53.36860 -2.28952 255 ft 9 kts 44°
2026-05-08 00:41 53.36887 -2.28906 255 ft 3 kts 45°
2026-05-08 00:41 53.36886 -2.28874 255 ft 3 kts 120°
2026-05-08 00:42 53.36876 -2.28854 255 ft 1 kts 133°
2026-05-08 00:42 53.36869 -2.28843 255 ft 1 kts 134°
2026-05-08 00:42 53.36864 -2.28835 255 ft 1 kts 134°